EUTELSAT W3B            
1 37206U 10056A   19260.06112766  .00002053  00000-0  54580-3 0  9992
2 37206   2.1389 179.8598 7119084 172.8711 208.8416  2.48770529 77868
BSAT-3B                 
1 37207U 10056B   19260.43104524 -.00000355  00000-0  00000+0 0  9995
2 37207   0.0737 304.3976 0002022 314.7330   1.9927  1.00272046 32552
ARIANE 5 R/B            
1 37208U 10056C   19260.14206338  .00001345  00000-0  34992-3 0  9990
2 37208   2.4056 135.8047 7061431 253.8993  23.8645  2.56472616 79359